Tracking 23757 objects as of 26-Oct-2021
HD Live streaming from Space Station
objects crossing your sky now

IRIDIUM 33 DEB

Track IRIDIUM 33 DEB now!
10-day predictions


NORAD ID: 34350
Int'l Code: 1997-051ES
Perigee: 748.1 km
Apogee: 783.4 km
Inclination: 86.3 °
Period: 100.0 minutes
Semi major axis: 7136 km
RCS: 0.064 m2 (small)
Launch date: September 14, 1997
Source: United States (US)
Launch site: TYURATAM MISSILE AND SPACE COMPLEX (TTMTR)

Note: This is SATELLITE DEBRIS
aabbcc
Your satellite tracking list
Your tracking list is empty




NASA's NSSDC Master Catalog

Two Line Element Set (TLE):
1 34350U 97051ES  21298.03042257  .00000311  00000-0  92054-4 0  9991
2 34350  86.3254 293.8344 0024788  84.0658 335.8930 14.39965240665357
Source of the keplerian elements: AFSPC